Location: ?????
(31.8092°N, 35.2590°E)
Time: 17:05:58
(UTC+00:00)

USA 81 - Pass Details

Date: 20 June 2021
Orbit: 784 x 789 km, 85.0° (Epoch: 12 June)

Event Time Altitude Azimuth Distance (km) Brightness Sun altitude
Rises 18:20:28 0° 356° (N) 3,277 8.0 -16.9°
Reaches altitude 10° 18:22:49 10° 357° (N) 2,345 7.2 -17.3°
Maximum altitude 18:28:06 89° 82° (E) 789 4.0 -18.1°
Enters shadow 18:31:22 24° 177° (S) 1,582 5.2 -18.6°
